Flag for U.S.A. Weather past 2 weeks in Overland Park, Kansas, U.S.A.

Now
16 °F

Sunny.


Feels Like: 4 °F
Forecast: 9 / 27 °F
Wind: 9 mph from North

Location: Johnson County Executive Airport

Current Time: Mar 5, 2015 at 9:29:20 AM

Latest Report: Mar 5, 2015 at 8:53 AM


Visibility: 10 mi

Pressure: 30.62 "Hg

Humidity: 45%

Dew point: -2 °F

Location of Overland ParkLocation

Historic Weather in Overland Park — Graph

°F

Overland Park temperature yesterday

Maximum temperature yesterday: 29 °F (at 12:53 AM)
Minimum temperature yesterday: 18 °F (at 8:01 AM)
Average temperature yesterday: 23 °F

Past Weeks' High & Low Weather Summary

 TemperatureHumidityPressure
High52 °F (Feb 25, 1:53 PM)100% (Feb 20, 9:53 PM)30.80 "Hg (Feb 20, 9:53 PM)
Low4 °F (Feb 27, 4:53 AM)24% (Feb 23, 3:53 PM)29.72 "Hg (Mar 3, 8:58 AM)
Average24 °F65%30.29 "Hg
* Reported Feb 18 7:53 AM — Mar 5 7:53 AM, Overland Park, Weather by CustomWeather, © 2015

Note: Actual official high and low records may vary slightly from our data, if they occured in-between our weather recording intervals... More about our weather records

Advertising

Overland Park weather history for previous 24 hours

 ConditionsComfort  
Time TempWeatherWind HumidityBarometerVisibility
7:53 AM
Thu, Mar 5
14 °FSunny.8 mph56%30.59 "Hg10 mi
6:53 AM12 °FSunny.6 mph58%30.57 "Hg10 mi
5:53 AM13 °FClear.5 mph59%30.56 "Hg10 mi
4:53 AM13 °FClear.6 mph59%30.54 "Hg10 mi
3:53 AM15 °FClear.7 mph56%30.50 "Hg10 mi
2:53 AM18 °FClear.10 mph52%30.48 "Hg10 mi
1:53 AM19 °FClear.6 mph52%30.47 "Hg10 mi
12:53 AM21 °FClear.8 mph43%30.44 "Hg10 mi
11:53 PM
Wed, Mar 4
23 °FClear.13 mph38%30.44 "Hg10 mi
10:53 PM25 °FClear.13 mph42%30.44 "Hg10 mi
9:53 PM25 °FClear.5 mph50%30.42 "Hg10 mi
8:53 PM23 °FClear.No wind55%30.42 "Hg10 mi
7:53 PM27 °FClear.No wind41%30.40 "Hg10 mi
6:53 PM27 °FPassing clouds.5 mph41%30.37 "Hg10 mi
5:53 PM27 °FOvercast.6 mph37%30.34 "Hg10 mi
4:53 PM26 °FSunny.12 mph38%30.30 "Hg10 mi
3:53 PM26 °FScattered clouds.14 mph37%30.32 "Hg10 mi
2:53 PM26 °FPartly sunny.18 mph35%30.30 "Hg10 mi
1:53 PM24 °FOvercast.14 mph44%30.29 "Hg10 mi
12:53 PM24 °FOvercast.16 mph44%30.33 "Hg10 mi
11:53 AM24 °FOvercast.18 mph48%30.34 "Hg10 mi
10:53 AM22 °FMostly cloudy.17 mph55%30.32 "Hg10 mi
9:53 AM21 °FOvercast.17 mph62%30.32 "Hg9 mi
9:04 AM19 °FLight snow. Ice fog.15 mph85%30.27 "Hg2 mi
Weather by CustomWeather, © 2015

See weather overviewHow to use our weather pages